Regional Weather Roundup
Issued by NWS Cleveland, OH

Home | Current Version | Previous Version | Graphics & Text | Print | Product List | Glossary On
Versions: 1 2 3 4 5 6 7 8 9 10 11 12 13 14 15 16 17 18 19 20 21 22 23 24 25 26 27 28 29 30 31 32 33 34 35 36 37 38 39 40 41 42 43 44 45 46 47 48 49 50
000
ASUS41 KCLE 270702
RWRCLE
OHIO REGIONAL WEATHER ROUNDUP
NATIONAL WEATHER SERVICE CLEVELAND, OH
200 AM EST SAT DEC 27 2014

NOTE: "FAIR" INDICATES FEW OR NO CLOUDS BELOW 12,000 FEET WITH NO
SIGNIFICANT WEATHER AND/OR OBSTRUCTIONS TO VISIBILITY.

OHZ001>008-015>018-024>027-034-035-043-044-270800-
   NORTHWEST OHIO

CITY           SKY/WX    TMP DP  RH WIND       PRES   REMARKS
DEFIANCE       CLOUDY    46  38  73 SW8       30.12S
FINDLAY        CLOUDY    44  36  73 S12       30.13S
TOLEDO EXPRESS CLOUDY    43  37  79 S5        30.11F
TOLEDO EXEC    CLOUDY    44  36  73 SW8       30.13S
LIMA           CLOUDY    47  36  65 SW10      30.14S
$$

OHZ009>014-019>023-028>033-038-089-270800-
   NORTHEAST OHIO

CITY           SKY/WX    TMP DP  RH WIND       PRES   REMARKS
CLE-HOPKINS    MOCLDY    43  33  68 S10       30.17F
CLE-LAKEFRONT  PTCLDY    46  34  62 S9        30.14F
CUY CO. ARPT   NOT AVBL
LORAIN-ELYRIA  MOCLDY    38  33  82 S7        30.15S
ASHTABULA      PTCLDY    39  32  76 S7        30.16S
AKRON-CANTON   MOCLDY    40  32  73 SW7       30.17R
WOOSTER        MOCLDY    39  33  79 SW6       30.16S
MANSFIELD      PTCLDY    41  33  73 SW10      30.15S
YOUNGSTOWN     PTCLDY    40  32  73 SW7       30.16S
$$

OHZ042-051>053-060>062-070>072-077>081-270800-
  SOUTHWEST OHIO

CITY           SKY/WX    TMP DP  RH WIND       PRES   REMARKS
CINC-COVINGTON MOCLDY    44  31  60 SW5       30.18S
CINC-LUNKEN    MOCLDY    37  36  96 CALM      30.21R
HAMILTON       CLOUDY    40  36  86 CALM      30.20R
DAYTON         MOCLDY    46  34  62 S9        30.17F
WRIGHT-PAT AFB CLOUDY    38  36  89 S5        30.18S
DAYTON GENERAL CLOUDY    43  35  73 S7        30.17S
WILMINGTON     PTCLDY    40  32  73 S5        30.18R
$$

OHZ036-037-039>041-045>050-054>059-063>069-073>076-082>088-270800-
  CENTRAL AND SOUTHEAST OHIO

CITY           SKY/WX    TMP DP  RH WIND       PRES   REMARKS
COLUMBUS       MOCLDY    36  31  82 CALM      30.18S
OSU AIRPORT    PTCLDY    37  32  82 S3        30.18S
BOLTON FIELD   NOT AVBL
RICKENBACK AFB NOT AVBL
NEWARK         MOCLDY    34  31  88 CALM      30.18S
MARION         CLOUDY    43  34  70 S8        30.16F
LANCASTER      MOCLDY    34  31  88 SE5       30.19F WCI  30
ZANESVILLE     MOCLDY    34  30  85 CALM      30.19F
NEW PHILLY     MOCLDY    36  31  82 SE5       30.20R
$$


USA.gov is the U.S. government's official web portal to all federal, state and local government web resources and services.